User: anonymous   Login
Location: Unspecified
(0.0000°N, 0.0000°E)
Time: 09:55:13
(UTC+00:00)
Language:

Tancredo 1 - Orbit

View from above orbital plane
View from above orbital plane
View from above satellite
View from above satellite

Ground track
Ground track

The orbit data is extracted from the following two-line orbital elements,

1 41931U 98067KT  17264.95947899  .00183977  00000-0  75596-3 0  9998
2 41931  51.6293 254.2744 0003318  33.8108 326.3106 15.84917509 38834
Epoch (UTC): 21 September 2017 23:01:38
Eccentricity: 0.0003318
inclination: 51.6293°
perigee height: 314 km
apogee height: 319 km
right ascension of ascending node: 254.2744°
argument of perigee: 33.8108°
revolutions per day: 15.84917509
mean anomaly at epoch: 326.3106°
orbit number at epoch: 3883

The dashed part of the orbit path shows where the satellite is in the earth's shadow,  

DLR